VIR77 EGCC-TBPB

Flight info

Callsign VIR77
Flight time N/A
Altitude 36000
Route EKLAD UY53 WAL L10 PENIL M144 BAGSO DCT LODLA DCT AMDEP/M081 DCT BEDRA DCT 46N020W 41N030W 35N040W/M081F380 30N045W 25N050W DCT GLAAS/N0466F380 DCT BGI
Aircraft A339/H-SADE1E2E3GHIJ3J5M1P2RWXY/LB2D1

Departure

Time 2026-05-06 10:57
Airport Manchester Airport (EGCC)

Arrival

Time N/A
Airport Grantley Adams International Airport (TBPB)
Time Latitude Longitude Altitude Speed Heading
2026-05-06 10:34 53.36460 -2.27769 261 ft 0 kts 45°
2026-05-06 10:47 53.36454 -2.27779 262 ft 4 kts 45°
2026-05-06 10:47 53.36447 -2.27790 262 ft 4 kts 45°
2026-05-06 10:47 53.36428 -2.27822 261 ft 4 kts 45°
2026-05-06 10:47 53.36413 -2.27845 267 ft 4 kts 59°
2026-05-06 10:48 53.36402 -2.27869 264 ft 4 kts 111°
2026-05-06 10:48 53.36414 -2.27903 264 ft 3 kts 135°
2026-05-06 10:48 53.36432 -2.27933 265 ft 4 kts 135°
2026-05-06 10:48 53.36447 -2.27958 265 ft 4 kts 135°
2026-05-06 10:49 53.36460 -2.27980 264 ft 0 kts 135°
2026-05-06 10:50 53.36436 -2.27938 264 ft 11 kts 134°
2026-05-06 10:50 53.36374 -2.27857 261 ft 2 kts 145°
2026-05-06 10:51 53.36369 -2.27853 261 ft 3 kts 150°
2026-05-06 10:51 53.36343 -2.27864 261 ft 6 kts 203°
2026-05-06 10:51 53.36314 -2.27938 261 ft 8 kts 239°
2026-05-06 10:51 53.36279 -2.28027 261 ft 10 kts 230°
2026-05-06 10:52 53.36210 -2.28051 261 ft 12 kts 159°
2026-05-06 10:52 53.36121 -2.27925 261 ft 19 kts 137°
2026-05-06 10:52 53.36004 -2.27857 261 ft 18 kts 179°
2026-05-06 10:52 53.35884 -2.27855 260 ft 17 kts 179°
2026-05-06 10:53 53.35755 -2.27873 253 ft 20 kts 192°
2026-05-06 10:53 53.35629 -2.27931 246 ft 17 kts 209°
2026-05-06 10:53 53.35533 -2.28067 241 ft 20 kts 225°
2026-05-06 10:53 53.35415 -2.28163 242 ft 18 kts 192°
2026-05-06 10:54 53.35291 -2.28216 238 ft 19 kts 204°
2026-05-06 10:54 53.35197 -2.28373 241 ft 20 kts 235°
2026-05-06 10:54 53.35107 -2.28560 238 ft 20 kts 230°
2026-05-06 10:54 53.35020 -2.28726 239 ft 20 kts 231°
2026-05-06 10:55 53.34925 -2.28894 231 ft 20 kts 225°
2026-05-06 10:55 53.34828 -2.29089 227 ft 23 kts 231°
2026-05-06 10:55 53.34712 -2.29283 222 ft 24 kts 215°
2026-05-06 10:55 53.34615 -2.29336 221 ft 8 kts 174°
2026-05-06 10:56 53.34561 -2.29310 224 ft 7 kts 155°
2026-05-06 10:56 53.34546 -2.29228 222 ft 9 kts 82°
2026-05-06 10:56 53.34613 -2.29065 225 ft 44 kts 57°
2026-05-06 10:56 53.35000 -2.28417 237 ft 111 kts 49°
2026-05-06 10:57 53.35588 -2.27147 313 ft 159 kts 53°
2026-05-06 10:57 53.36305 -2.25554 725 ft 180 kts 53°
2026-05-06 10:57 53.37063 -2.23870 1513 ft 179 kts 52°
2026-05-06 10:57 53.37853 -2.22243 2346 ft 180 kts 51°
2026-05-06 10:58 53.38742 -2.20755 3027 ft 186 kts 31°
2026-05-06 10:58 53.39986 -2.20256 3693 ft 189 kts 356°
2026-05-06 10:58 53.41171 -2.21080 4344 ft 191 kts 320°
2026-05-06 10:58 53.41905 -2.22948 4983 ft 196 kts 294°
2026-05-06 10:59 53.42328 -2.25129 5592 ft 197 kts 289°
2026-05-06 10:59 53.42742 -2.27318 6206 ft 196 kts 292°
2026-05-06 10:59 53.43061 -2.29541 6789 ft 199 kts 278°
2026-05-06 10:59 53.43157 -2.31923 7156 ft 214 kts 276°
2026-05-06 11:00 53.43237 -2.34539 7314 ft 235 kts 276°
2026-05-06 11:00 53.43339 -2.37388 7506 ft 254 kts 276°
2026-05-06 11:00 53.43465 -2.40446 7690 ft 271 kts 276°
2026-05-06 11:00 53.43605 -2.43588 8190 ft 275 kts 277°
2026-05-06 11:01 53.43776 -2.46791 8776 ft 277 kts 282°
2026-05-06 11:01 53.44220 -2.49940 9342 ft 279 kts 286°
2026-05-06 11:01 53.44714 -2.53089 9986 ft 278 kts 287°
2026-05-06 11:01 53.45219 -2.56263 10337 ft 289 kts 286°
2026-05-06 11:02 53.45748 -2.59613 10497 ft 305 kts 286°
2026-05-06 11:02 53.46298 -2.63151 10654 ft 321 kts 285°
2026-05-06 11:02 53.46862 -2.66830 11024 ft 328 kts 285°
2026-05-06 11:02 53.47429 -2.70555 11564 ft 330 kts 285°
2026-05-06 11:03 53.47991 -2.74257 12076 ft 333 kts 285°
2026-05-06 11:03 53.48564 -2.78029 12630 ft 335 kts 285°
2026-05-06 11:03 53.49220 -2.82357 13218 ft 337 kts 285°
2026-05-06 11:03 53.51288 -2.96065 14966 ft 344 kts 284°
2026-05-06 11:04 53.52464 -3.03909 15897 ft 349 kts 284°
2026-05-06 11:04 53.53412 -3.10266 16653 ft 352 kts 284°
2026-05-06 11:04 53.55774 -3.26247 18462 ft 360 kts 284°
2026-05-06 11:04 53.58199 -3.42811 20063 ft 368 kts 284°
2026-05-06 11:05 53.60653 -3.59756 21660 ft 377 kts 283°
2026-05-06 11:05 53.62050 -3.77403 23243 ft 386 kts 274°
2026-05-06 11:05 53.62794 -3.95356 24695 ft 393 kts 274°
2026-05-06 11:05 53.63525 -4.13881 26095 ft 399 kts 274°
2026-05-06 11:06 53.64237 -4.32719 27445 ft 406 kts 273°
2026-05-06 11:06 53.64932 -4.51884 28701 ft 413 kts 273°
2026-05-06 11:06 53.65605 -4.71407 29787 ft 423 kts 273°
2026-05-06 11:06 53.66266 -4.91350 30835 ft 430 kts 273°
2026-05-06 11:07 53.66714 -5.05345 31541 ft 435 kts 273°
2026-05-06 11:07 53.67091 -5.17583 32119 ft 439 kts 273°
2026-05-06 11:07 53.67271 -5.23767 32333 ft 443 kts 273°
2026-05-06 11:08 53.67339 -5.26156 32344 ft 445 kts 273°
2026-05-06 11:08 53.67759 -5.41660 32936 ft 449 kts 270°
2026-05-06 11:09 53.66895 -5.51914 33234 ft 453 kts 255°
2026-05-06 11:09 53.66113 -5.55693 33354 ft 455 kts 249°
2026-05-06 11:09 53.64313 -5.61747 33484 ft 457 kts 243°
2026-05-06 11:10 53.60444 -5.73928 33865 ft 457 kts 243°
2026-05-06 11:10 53.57763 -5.82454 34189 ft 455 kts 243°